Stündliche Wetter Otrezy

Heute, 14 April, Mittwoch

Zeit Temperatur Niederschläge Wind Luftdruck Luftfeuchtigkeit
00:00 +11°C° 0 mm 4 m/S 752 mmHg 59%
01:00 +10°C° 0 mm 4 m/S 752 mmHg 62%
02:00 +10°C° 0 mm 3 m/S 752 mmHg 64%
03:00 +9°C° 0 mm 3 m/S 752 mmHg 67%
04:00 +9°C° 0 mm 3 m/S 752 mmHg 67%
05:00 +9°C° 0 mm 3 m/S 751 mmHg 68%
06:00 +8°C° 0 mm 3 m/S 751 mmHg 69%
07:00 +10°C° 0 mm 3 m/S 751 mmHg 62%
08:00 +12°C° 0 mm 4 m/S 751 mmHg 55%
09:00 +13°C° 0 mm 4 m/S 751 mmHg 47%
10:00 +15°C° 0 mm 5 m/S 751 mmHg 42%
11:00 +16°C° 0 mm 5 m/S 750 mmHg 36%
12:00 +19°C° 0 mm 5 m/S 750 mmHg 30%
13:00 +19°C° 0 mm 5 m/S 750 mmHg 29%
14:00 +20°C° 0 mm 5 m/S 749 mmHg 27%
15:00 +20°C° 0 mm 6 m/S 749 mmHg 25%
16:00 +20°C° 0 mm 5 m/S 749 mmHg 29%
17:00 +19°C° 0 mm 4 m/S 748 mmHg 33%
18:00 +18°C° 0 mm 4 m/S 748 mmHg 37%
19:00 +16°C° 0 mm 3 m/S 748 mmHg 41%
20:00 +14°C° 0 mm 3 m/S 748 mmHg 46%
21:00 +12°C° 0 mm 3 m/S 748 mmHg 51%
22:00 +12°C° 0 mm 3 m/S 748 mmHg 53%
23:00 +11°C° 0 mm 3 m/S 748 mmHg 55%

Morgen, 15 April, Donnerstag

Zeit Temperatur Niederschläge Wind Luftdruck Luftfeuchtigkeit
00:00 +11°C° 0 mm 3 m/S 747 mmHg 57%
01:00 +10°C° 0 mm 3 m/S 747 mmHg 60%
02:00 +9°C° 0 mm 3 m/S 747 mmHg 63%
03:00 +9°C° 0 mm 3 m/S 747 mmHg 66%
04:00 +9°C° 0 mm 3 m/S 747 mmHg 67%
05:00 +8°C° 0 mm 3 m/S 747 mmHg 69%
06:00 +8°C° 0 mm 3 m/S 747 mmHg 71%
07:00 +10°C° 0 mm 3 m/S 747 mmHg 64%
08:00 +12°C° 0 mm 3 m/S 746 mmHg 58%
09:00 +14°C° 0 mm 4 m/S 746 mmHg 52%
10:00 +15°C° 0 mm 4 m/S 746 mmHg 47%
11:00 +18°C° 0 mm 4 m/S 746 mmHg 42%
12:00 +19°C° 0 mm 5 m/S 746 mmHg 36%
13:00 +20°C° 0 mm 4 m/S 746 mmHg 35%
14:00 +20°C° 0 mm 4 m/S 746 mmHg 33%
15:00 +21°C° 0 mm 4 m/S 745 mmHg 32%
16:00 +20°C° 0 mm 4 m/S 745 mmHg 35%
17:00 +20°C° 0 mm 3 m/S 745 mmHg 37%
18:00 +19°C° 0 mm 2 m/S 745 mmHg 40%
19:00 +18°C° 0 mm 2 m/S 745 mmHg 46%
20:00 +16°C° 0 mm 2 m/S 746 mmHg 52%
21:00 +14°C° 0 mm 2 m/S 746 mmHg 58%
22:00 +14°C° 0 mm 2 m/S 746 mmHg 62%
23:00 +13°C° 0 mm 2 m/S 746 mmHg 65%

übermorgen, 16 April, Freitag

Zeit Temperatur Niederschläge Wind Luftdruck Luftfeuchtigkeit
00:00 +12°C° 0 mm 2 m/S 746 mmHg 69%
01:00 +12°C° 0.1 mm 2 m/S 746 mmHg 71%
02:00 +12°C° 0.1 mm 2 m/S 746 mmHg 73%
03:00 +10°C° 0.1 mm 2 m/S 746 mmHg 74%
04:00 +10°C° 0.1 mm 2 m/S 746 mmHg 76%
05:00 +10°C° 0.1 mm 2 m/S 746 mmHg 77%
06:00 +9°C° 0.1 mm 3 m/S 746 mmHg 78%
07:00 +11°C° 0 mm 3 m/S 746 mmHg 73%
08:00 +12°C° 0 mm 3 m/S 747 mmHg 67%
09:00 +13°C° 0 mm 4 m/S 747 mmHg 62%
10:00 +14°C° 0 mm 4 m/S 747 mmHg 57%
11:00 +15°C° 0 mm 4 m/S 748 mmHg 52%
12:00 +18°C° 0 mm 4 m/S 748 mmHg 47%
13:00 +18°C° 0 mm 4 m/S 748 mmHg 45%
14:00 +19°C° 0 mm 4 m/S 748 mmHg 42%
15:00 +19°C° 0 mm 4 m/S 748 mmHg 40%
16:00 +19°C° 0.1 mm 4 m/S 748 mmHg 44%
17:00 +17°C° 0.1 mm 5 m/S 748 mmHg 48%
18:00 +16°C° 0.1 mm 5 m/S 748 mmHg 52%
19:00 +15°C° 0.1 mm 6 m/S 748 mmHg 60%
20:00 +14°C° 0.1 mm 6 m/S 748 mmHg 67%
21:00 +11°C° 0.1 mm 6 m/S 748 mmHg 75%
22:00 +11°C° 0 mm 6 m/S 749 mmHg 78%
23:00 +10°C° 0 mm 6 m/S 749 mmHg 81%

17 April, Samstag

Zeit Temperatur Niederschläge Wind Luftdruck Luftfeuchtigkeit
00:00 +9°C° 0 mm 6 m/S 749 mmHg 83%
01:00 +9°C° 0 mm 6 m/S 749 mmHg 85%
02:00 +8°C° 0 mm 5 m/S 749 mmHg 86%
03:00 +8°C° 0 mm 5 m/S 749 mmHg 88%
04:00 +7°C° 0 mm 5 m/S 749 mmHg 88%
05:00 +7°C° 0 mm 6 m/S 749 mmHg 89%
06:00 +5°C° 0 mm 6 m/S 749 mmHg 89%
07:00 +8°C° 0 mm 6 m/S 750 mmHg 83%
08:00 +9°C° 0 mm 7 m/S 750 mmHg 77%
09:00 +10°C° 0 mm 7 m/S 750 mmHg 70%
10:00 +11°C° 0 mm 7 m/S 750 mmHg 64%
11:00 +14°C° 0 mm 7 m/S 750 mmHg 59%
12:00 +16°C° 0 mm 7 m/S 750 mmHg 53%
13:00 +16°C° 0 mm 7 m/S 750 mmHg 50%
14:00 +17°C° 0 mm 7 m/S 750 mmHg 48%
15:00 +17°C° 0 mm 7 m/S 750 mmHg 46%
16:00 +16°C° 0 mm 8 m/S 749 mmHg 49%
17:00 +15°C° 0 mm 8 m/S 749 mmHg 53%
18:00 +13°C° 0 mm 8 m/S 749 mmHg 57%
19:00 +12°C° 0.1 mm 7 m/S 750 mmHg 57%
20:00 +11°C° 0.1 mm 7 m/S 750 mmHg 56%
21:00 +10°C° 0.1 mm 6 m/S 751 mmHg 56%
22:00 +9°C° 0 mm 6 m/S 751 mmHg 56%
23:00 +9°C° 0 mm 6 m/S 751 mmHg 56%

18 April, Sonntag

Zeit Temperatur Niederschläge Wind Luftdruck Luftfeuchtigkeit
00:00 +8°C° 0 mm 5 m/S 751 mmHg 56%
01:00 +8°C° 0 mm 5 m/S 751 mmHg 56%
02:00 +7°C° 0 mm 5 m/S 751 mmHg 56%
03:00 +7°C° 0 mm 5 m/S 751 mmHg 57%
04:00 +6°C° 0 mm 5 m/S 752 mmHg 58%
05:00 +6°C° 0 mm 5 m/S 752 mmHg 60%
06:00 +5°C° 0 mm 5 m/S 752 mmHg 62%
07:00 +6°C° 0 mm 5 m/S 752 mmHg 58%
08:00 +7°C° 0 mm 6 m/S 752 mmHg 54%
09:00 +8°C° 0 mm 6 m/S 752 mmHg 51%
10:00 +9°C° 0 mm 6 m/S 752 mmHg 46%
11:00 +10°C° 0 mm 6 m/S 752 mmHg 41%
12:00 +13°C° 0 mm 6 m/S 752 mmHg 37%
13:00 +13°C° 0 mm 6 m/S 752 mmHg 35%
14:00 +14°C° 0 mm 6 m/S 752 mmHg 34%
15:00 +14°C° 0 mm 6 m/S 752 mmHg 32%
16:00 +14°C° 0 mm 5 m/S 752 mmHg 35%
17:00 +13°C° 0 mm 5 m/S 752 mmHg 37%
18:00 +13°C° 0 mm 5 m/S 752 mmHg 40%
19:00 +12°C° 0 mm 4 m/S 752 mmHg 45%
20:00 +11°C° 0 mm 4 m/S 752 mmHg 50%
21:00 +10°C° 0 mm 4 m/S 753 mmHg 56%
22:00 +8°C° 0 mm 4 m/S 753 mmHg 58%
23:00 +8°C° 0 mm 5 m/S 753 mmHg 60%

19 April, Montag

Zeit Temperatur Niederschläge Wind Luftdruck Luftfeuchtigkeit
00:00 +7°C° 0 mm 5 m/S 753 mmHg 62%
01:00 +7°C° 0 mm 4 m/S 753 mmHg 64%
02:00 +6°C° 0 mm 4 m/S 754 mmHg 67%
03:00 +7°C° 0 mm 3 m/S 754 mmHg 69%
04:00 +5°C° 0 mm 4 m/S 754 mmHg 71%
05:00 +5°C° 0 mm 4 m/S 754 mmHg 73%
06:00 +4°C° 0 mm 4 m/S 754 mmHg 74%
07:00 +6°C° 0 mm 5 m/S 754 mmHg 70%
08:00 +7°C° 0 mm 5 m/S 754 mmHg 66%
09:00 +8°C° 0 mm 6 m/S 755 mmHg 62%
10:00 +9°C° 0 mm 6 m/S 755 mmHg 58%
11:00 +9°C° 0 mm 6 m/S 755 mmHg 54%
12:00 +10°C° 0 mm 6 m/S 755 mmHg 50%
13:00 +10°C° 0 mm 6 m/S 755 mmHg 49%
14:00 +10°C° 0 mm 6 m/S 755 mmHg 48%
15:00 +10°C° 0 mm 6 m/S 755 mmHg 47%
16:00 +9°C° 0 mm 6 m/S 755 mmHg 46%
17:00 +9°C° 0 mm 6 m/S 755 mmHg 45%
18:00 +8°C° 0 mm 6 m/S 755 mmHg 44%
19:00 +7°C° 0 mm 5 m/S 756 mmHg 45%
20:00 +6°C° 0 mm 5 m/S 756 mmHg 46%
21:00 +4°C° 0 mm 4 m/S 756 mmHg 47%
22:00 +4°C° 0 mm 4 m/S 756 mmHg 50%
23:00 +3°C° 0 mm 4 m/S 756 mmHg 53%
Mehr zeigen

Wir brauchen deine Erlaubnis

Meteoprog und unser Service Anbieter werden persönliche Daten aufbewahren, so wie Cookies, Geräte Bezeichnung oder ähnliche Technologien von deinem Gerät und Prozess, so wie Persönliche Daten Inhalte und Werbungen, genauso wie social Media und den Verkehr zu analysieren.

  • Aufbewahrung und/oder Zugang zu deiner Geräte Informationen.

    Cookies, Geräte Bezeichnung oder andere Informationen, können aufbewahrt oder Zugang zu deinem Gerät erhalten, für den Grund, der oben angegeben wird.

  • Personalisierte Werbung und Inhalte, Messungen, Einblick in das Publikum und Produkt Entwicklung.

    Werbungen und Inhalte können personalisiert werden, basierend auf ein Profil. Mehr Daten können besser personalisierte Werbungen und Inhalte hinzufügen. Werbung und Inhalte können gezeigt und gemessen werden. Einblicke über das Publikum, welche die Werbung gesehen haben und den Inhalt, können abgeleitet werden. So wie Daten können genutzt werden, um es zu verbessern oder die Benutzer Erfahrung zu verbessern das System und die Software.

Wenn du “Ich stimme zu” klickst, erlaubst du uns, die Cookies zu benutzen die Geräte Bezeichnung, den Web oder ähnliche Technologien zu benutzen. Deine Settings, können in deinem Gerät bei deinem Browser geändert werden.

Für den bestimmten Zweck, berechtigten Interessen beruhen darauf, mehr als auf den Inhalt. Du kannst mehr darüber in unseren Privaten und Cookie Politik lesen.